EZY87JW EGKK-LGPZ

Flight info

Callsign EZY87JW
Flight time N/A
Altitude 37000
Route ODVIK Y311 DVR UL9 KONAN DCT KOK DCT RITAX DCT KRH DCT UTABA DCT BEMKI DCT ELMEM DCT DIRAB DCT RASUG DCT OKLAX DCT SIPAL DCT RODON DCT LIMJA DCT PITAS N732 KRK M127 MALED
Aircraft A20N/M-SDE2E3FGHIJ1RWXYZ/LB1G1

Departure

Time 2026-05-07 06:50
Airport London Gatwick Airport (EGKK)

Arrival

Time N/A
Airport Aktion National Airport (LGPZ)
Time Latitude Longitude Altitude Speed Heading
2026-05-07 06:29 51.15487 -0.18466 197 ft 0 kts 258°
2026-05-07 06:40 51.15488 -0.18456 197 ft 2 kts 258°
2026-05-07 06:40 51.15491 -0.18433 197 ft 2 kts 258°
2026-05-07 06:41 51.15494 -0.18410 197 ft 2 kts 258°
2026-05-07 06:41 51.15497 -0.18386 197 ft 2 kts 258°
2026-05-07 06:41 51.15500 -0.18363 197 ft 2 kts 258°
2026-05-07 06:41 51.15502 -0.18348 197 ft 2 kts 259°
2026-05-07 06:42 51.15509 -0.18329 197 ft 2 kts 208°
2026-05-07 06:42 51.15521 -0.18324 197 ft 0 kts 172°
2026-05-07 06:42 51.15528 -0.18327 197 ft 1 kts 166°
2026-05-07 06:42 51.15529 -0.18327 197 ft 0 kts 167°
2026-05-07 06:43 51.15528 -0.18327 197 ft 0 kts 167°
2026-05-07 06:44 51.15525 -0.18326 197 ft 2 kts 167°
2026-05-07 06:45 51.15488 -0.18312 197 ft 8 kts 168°
2026-05-07 06:45 51.15424 -0.18293 197 ft 10 kts 169°
2026-05-07 06:45 51.15348 -0.18268 198 ft 12 kts 167°
2026-05-07 06:45 51.15247 -0.18229 198 ft 16 kts 167°
2026-05-07 06:46 51.15179 -0.18284 198 ft 13 kts 262°
2026-05-07 06:46 51.15161 -0.18453 199 ft 17 kts 261°
2026-05-07 06:46 51.15136 -0.18671 199 ft 20 kts 258°
2026-05-07 06:46 51.15105 -0.18895 199 ft 20 kts 258°
2026-05-07 06:47 51.15075 -0.19114 199 ft 19 kts 257°
2026-05-07 06:47 51.15033 -0.19263 199 ft 13 kts 190°
2026-05-07 06:47 51.14954 -0.19323 199 ft 14 kts 257°
2026-05-07 06:47 51.14930 -0.19501 199 ft 18 kts 258°
2026-05-07 06:48 51.14901 -0.19718 199 ft 21 kts 258°
2026-05-07 06:48 51.14867 -0.19964 200 ft 24 kts 258°
2026-05-07 06:48 51.14830 -0.20234 200 ft 24 kts 258°
2026-05-07 06:48 51.14793 -0.20498 200 ft 23 kts 257°
2026-05-07 06:49 51.14752 -0.20719 201 ft 16 kts 227°
2026-05-07 06:49 51.14679 -0.20707 201 ft 11 kts 165°
2026-05-07 06:49 51.14601 -0.20673 201 ft 11 kts 144°
2026-05-07 06:49 51.14597 -0.20607 201 ft 9 kts 78°
2026-05-07 06:50 51.14666 -0.20105 200 ft 81 kts 77°
2026-05-07 06:50 51.14834 -0.18888 200 ft 140 kts 77°
2026-05-07 06:50 51.15068 -0.17174 396 ft 169 kts 78°
2026-05-07 06:50 51.15321 -0.15348 1008 ft 170 kts 78°
2026-05-07 06:51 51.15570 -0.13544 1658 ft 171 kts 78°
2026-05-07 06:51 51.15824 -0.11682 2209 ft 178 kts 77°
2026-05-07 06:51 51.16098 -0.09670 2575 ft 194 kts 77°
2026-05-07 06:51 51.16396 -0.07478 2940 ft 211 kts 77°
2026-05-07 06:52 51.16708 -0.05069 3249 ft 234 kts 80°
2026-05-07 06:52 51.16870 -0.02397 3773 ft 249 kts 88°
2026-05-07 06:52 51.16856 0.00414 4354 ft 261 kts 91°
2026-05-07 06:52 51.16802 0.03337 5098 ft 267 kts 92°
2026-05-07 06:53 51.16741 0.06289 5905 ft 270 kts 92°
2026-05-07 06:53 51.16681 0.09279 6694 ft 274 kts 92°
2026-05-07 06:53 51.16620 0.12289 7487 ft 277 kts 92°
2026-05-07 06:53 51.16560 0.15342 8283 ft 280 kts 91°
2026-05-07 06:54 51.16543 0.18461 9063 ft 283 kts 89°
2026-05-07 06:54 51.16557 0.21620 9820 ft 287 kts 89°
2026-05-07 06:54 51.16572 0.24825 10555 ft 291 kts 89°
2026-05-07 06:54 51.16584 0.28020 11276 ft 295 kts 89°
2026-05-07 06:55 51.16592 0.31294 11999 ft 298 kts 89°
2026-05-07 06:55 51.16599 0.34613 12720 ft 301 kts 89°
2026-05-07 06:55 51.16604 0.37974 13426 ft 304 kts 89°
2026-05-07 06:55 51.16606 0.41306 14129 ft 306 kts 90°
2026-05-07 06:56 51.16604 0.44728 14777 ft 311 kts 90°
2026-05-07 06:56 51.16604 0.48164 15435 ft 314 kts 89°
2026-05-07 06:56 51.16602 0.51694 15950 ft 323 kts 89°
2026-05-07 06:56 51.16603 0.55323 16231 ft 338 kts 89°
2026-05-07 06:57 51.16602 0.59143 16588 ft 350 kts 89°
2026-05-07 06:57 51.16599 0.63049 17166 ft 355 kts 89°
2026-05-07 06:57 51.16594 0.66975 17792 ft 357 kts 90°
2026-05-07 06:57 51.16587 0.70984 18402 ft 360 kts 90°
2026-05-07 06:58 51.16578 0.74936 18990 ft 363 kts 90°
2026-05-07 06:58 51.16568 0.78967 19571 ft 366 kts 90°
2026-05-07 06:58 51.16557 0.83056 20137 ft 369 kts 90°
2026-05-07 06:58 51.16543 0.87166 20693 ft 372 kts 90°
2026-05-07 06:59 51.16528 0.91291 21236 ft 375 kts 90°
2026-05-07 06:59 51.16512 0.95459 21761 ft 378 kts 90°
2026-05-07 06:59 51.16493 0.99666 22278 ft 381 kts 90°
2026-05-07 06:59 51.16473 1.03877 22786 ft 384 kts 90°
2026-05-07 07:00 51.16451 1.08167 23291 ft 387 kts 90°
2026-05-07 07:00 51.16428 1.12473 23773 ft 390 kts 90°
2026-05-07 07:00 51.16403 1.16790 24233 ft 393 kts 90°
2026-05-07 07:00 51.16375 1.21138 24674 ft 396 kts 90°
2026-05-07 07:01 51.16346 1.25527 25102 ft 400 kts 90°
2026-05-07 07:01 51.16314 1.29996 25540 ft 403 kts 90°
2026-05-07 07:01 51.16280 1.34404 25958 ft 405 kts 91°
2026-05-07 07:01 51.16137 1.38913 26354 ft 408 kts 93°
2026-05-07 07:02 51.15931 1.43403 26738 ft 411 kts 94°
2026-05-07 07:02 51.15713 1.47928 27119 ft 414 kts 94°
2026-05-07 07:02 51.15488 1.52539 27499 ft 417 kts 94°
2026-05-07 07:02 51.15262 1.57124 27874 ft 419 kts 94°
2026-05-07 07:03 51.15036 1.61702 28236 ft 421 kts 94°
2026-05-07 07:03 51.14806 1.66343 28581 ft 424 kts 94°
2026-05-07 07:03 51.14572 1.71067 28924 ft 426 kts 94°
2026-05-07 07:03 51.14339 1.75726 29253 ft 428 kts 94°
2026-05-07 07:04 51.14099 1.80442 29576 ft 430 kts 94°
2026-05-07 07:04 51.13855 1.85219 29892 ft 433 kts 95°
2026-05-07 07:04 51.13611 1.89955 30191 ft 435 kts 95°
2026-05-07 07:04 51.13362 1.94744 30509 ft 436 kts 95°
2026-05-07 07:05 51.13112 1.99533 30914 ft 436 kts 95°
2026-05-07 07:05 51.12860 2.04349 31314 ft 434 kts 95°
2026-05-07 07:05 51.12608 2.09126 31685 ft 433 kts 95°
2026-05-07 07:05 51.12355 2.13867 32036 ft 432 kts 95°
2026-05-07 07:06 51.12103 2.18578 32368 ft 432 kts 95°
2026-05-07 07:06 51.11844 2.23322 32690 ft 431 kts 95°
2026-05-07 07:06 51.11583 2.28082 33000 ft 431 kts 95°
2026-05-07 07:06 51.11324 2.32775 33295 ft 430 kts 95°
2026-05-07 07:07 51.11062 2.37491 33546 ft 431 kts 95°
2026-05-07 07:07 51.10795 2.42235 33771 ft 432 kts 95°
2026-05-07 07:07 51.10525 2.46995 33988 ft 433 kts 95°
2026-05-07 07:07 51.10255 2.51716 34196 ft 434 kts 95°
2026-05-07 07:08 51.09869 2.56488 34405 ft 435 kts 99°
2026-05-07 07:08 51.09299 2.61213 34605 ft 436 kts 102°
2026-05-07 07:08 51.08544 2.65863 34787 ft 436 kts 107°
2026-05-07 07:08 51.07607 2.70436 34960 ft 437 kts 110°
2026-05-07 07:09 51.05204 2.79328 35029 ft 438 kts 116°
2026-05-07 07:09 51.02549 2.88004 35039 ft 438 kts 116°
2026-05-07 07:10 50.99881 2.96705 35042 ft 438 kts 116°
2026-05-07 07:10 50.97229 3.05349 35033 ft 438 kts 116°
2026-05-07 07:11 50.94566 3.14006 35029 ft 438 kts 116°
2026-05-07 07:11 50.91889 3.22676 35026 ft 438 kts 116°
2026-05-07 07:12 50.89225 3.31266 35023 ft 438 kts 116°
2026-05-07 07:12 50.86509 3.39913 35028 ft 438 kts 116°
2026-05-07 07:13 50.83801 3.48546 35025 ft 439 kts 116°
2026-05-07 07:13 50.81115 3.57111 35031 ft 438 kts 116°
2026-05-07 07:14 50.78411 3.65715 35037 ft 438 kts 117°
2026-05-07 07:14 50.75709 3.74310 35035 ft 437 kts 116°
2026-05-07 07:15 50.73000 3.82892 35038 ft 437 kts 116°
2026-05-07 07:15 50.70287 3.91447 35039 ft 438 kts 116°
2026-05-07 07:16 50.67577 3.99957 35042 ft 438 kts 116°
2026-05-07 07:16 50.64827 4.08564 35042 ft 438 kts 116°
2026-05-07 07:17 50.62096 4.17077 35042 ft 438 kts 116°
2026-05-07 07:17 50.59347 4.25619 35041 ft 437 kts 116°
2026-05-07 07:18 50.56609 4.34100 35039 ft 437 kts 116°
2026-05-07 07:18 50.53853 4.42606 35041 ft 437 kts 116°
2026-05-07 07:19 50.51094 4.51091 35037 ft 436 kts 116°
2026-05-07 07:19 50.48337 4.59540 35033 ft 436 kts 116°
2026-05-07 07:20 50.45586 4.67948 35031 ft 436 kts 117°
2026-05-07 07:20 50.42822 4.76394 35028 ft 436 kts 117°
2026-05-07 07:21 50.40039 4.84853 35022 ft 437 kts 117°
2026-05-07 07:21 50.37262 4.93259 35020 ft 437 kts 117°
2026-05-07 07:22 50.34454 5.01724 35032 ft 437 kts 117°
2026-05-07 07:22 50.31671 5.10083 35034 ft 436 kts 117°
2026-05-07 07:23 50.28864 5.18481 35015 ft 436 kts 117°
2026-05-07 07:23 50.26051 5.26874 35000 ft 436 kts 117°
2026-05-07 07:24 50.23245 5.35218 34995 ft 435 kts 116°
2026-05-07 07:24 50.20444 5.43522 34999 ft 435 kts 116°
2026-05-07 07:25 50.16206 5.56035 34984 ft 436 kts 117°
2026-05-07 07:26 50.13369 5.64377 34978 ft 437 kts 117°
2026-05-07 07:26 50.10530 5.72707 34973 ft 437 kts 117°
2026-05-07 07:27 50.07663 5.81081 34977 ft 436 kts 118°
2026-05-07 07:27 50.04673 5.89250 34964 ft 436 kts 120°
2026-05-07 07:28 50.01619 5.97408 34973 ft 436 kts 120°
2026-05-07 07:28 49.98577 6.05536 34967 ft 437 kts 120°
2026-05-07 07:29 49.95517 6.13704 34971 ft 438 kts 120°
2026-05-07 07:29 49.92461 6.21835 34969 ft 438 kts 120°
2026-05-07 07:30 49.89395 6.29969 34973 ft 438 kts 120°
2026-05-07 07:30 49.86296 6.38091 34979 ft 438 kts 120°
2026-05-07 07:31 49.83200 6.46212 34976 ft 438 kts 120°
2026-05-07 07:31 49.80109 6.54325 34982 ft 438 kts 120°
2026-05-07 07:32 49.77031 6.62390 34975 ft 438 kts 120°
2026-05-07 07:32 49.73932 6.70505 34987 ft 438 kts 121°
2026-05-07 07:33 49.70842 6.78581 34987 ft 438 kts 121°
2026-05-07 07:33 49.67735 6.86659 34983 ft 437 kts 121°
2026-05-07 07:34 49.64640 6.94676 34973 ft 437 kts 121°
2026-05-07 07:34 49.61513 7.02749 34981 ft 437 kts 121°
2026-05-07 07:35 49.58412 7.10730 34973 ft 438 kts 121°
2026-05-07 07:35 49.55276 7.18778 34975 ft 438 kts 121°
2026-05-07 07:36 49.52146 7.26783 34981 ft 438 kts 121°
2026-05-07 07:36 49.49004 7.34797 34980 ft 437 kts 121°
2026-05-07 07:37 49.45873 7.42755 34984 ft 437 kts 121°
2026-05-07 07:37 49.42715 7.50763 34981 ft 437 kts 121°
2026-05-07 07:38 49.39579 7.58689 34986 ft 438 kts 121°
2026-05-07 07:38 49.36405 7.66685 34984 ft 438 kts 122°
2026-05-07 07:39 49.33247 7.74645 34986 ft 438 kts 122°
2026-05-07 07:39 49.30094 7.82554 34986 ft 438 kts 122°
2026-05-07 07:40 49.26919 7.90487 34988 ft 437 kts 122°
2026-05-07 07:40 49.23734 7.98418 34983 ft 438 kts 122°
2026-05-07 07:41 49.20542 8.06339 34985 ft 438 kts 122°
2026-05-07 07:41 49.17352 8.14233 34986 ft 438 kts 122°
2026-05-07 07:42 49.14155 8.22114 34993 ft 439 kts 122°
2026-05-07 07:42 49.10937 8.30028 34982 ft 438 kts 122°
2026-05-07 07:43 49.07737 8.37872 34982 ft 438 kts 122°
2026-05-07 07:43 49.04518 8.45736 34987 ft 437 kts 122°
2026-05-07 07:44 49.01094 8.53397 34981 ft 436 kts 128°
2026-05-07 07:44 48.97113 8.60357 34974 ft 436 kts 135°
2026-05-07 07:45 48.92614 8.66528 34971 ft 436 kts 143°
2026-05-07 07:45 48.87856 8.72260 34969 ft 436 kts 143°
2026-05-07 07:46 48.83120 8.77931 34969 ft 436 kts 143°
2026-05-07 07:46 48.78357 8.83638 34968 ft 436 kts 143°
2026-05-07 07:47 48.73584 8.89351 34968 ft 436 kts 143°
2026-05-07 07:47 48.68857 8.95001 34978 ft 436 kts 143°
2026-05-07 07:48 48.64092 9.00682 34979 ft 435 kts 143°
2026-05-07 07:48 48.59353 9.06318 34979 ft 436 kts 143°
2026-05-07 07:49 48.54588 9.11971 34985 ft 437 kts 143°
2026-05-07 07:49 48.49807 9.17627 34989 ft 437 kts 143°
2026-05-07 07:50 48.45023 9.23275 34987 ft 437 kts 143°
2026-05-07 07:50 48.40254 9.28891 34979 ft 437 kts 143°
2026-05-07 07:51 48.35494 9.34485 34981 ft 436 kts 143°
2026-05-07 07:51 48.30716 9.40082 34979 ft 436 kts 143°
2026-05-07 07:52 48.25924 9.45683 34982 ft 435 kts 144°
2026-05-07 07:52 48.21193 9.51432 34989 ft 436 kts 142°
2026-05-07 07:53 48.16533 9.57203 34993 ft 436 kts 142°
2026-05-07 07:53 48.11832 9.62992 34997 ft 436 kts 142°
2026-05-07 07:54 48.07146 9.68751 34998 ft 436 kts 143°
2026-05-07 07:54 48.02458 9.74507 35000 ft 435 kts 143°
2026-05-07 07:55 47.97794 9.80203 35007 ft 435 kts 143°
2026-05-07 07:55 47.93085 9.85931 35006 ft 435 kts 143°
2026-05-07 07:56 47.88397 9.91613 35008 ft 434 kts 144°
2026-05-07 07:56 47.83727 9.97231 35009 ft 433 kts 144°
2026-05-07 07:57 47.79028 10.02887 35012 ft 432 kts 144°
2026-05-07 07:57 47.74360 10.08506 35013 ft 432 kts 144°
2026-05-07 07:58 47.69667 10.14144 35013 ft 432 kts 144°
2026-05-07 07:58 47.64975 10.19770 35018 ft 433 kts 144°
2026-05-07 07:59 47.60288 10.25375 35020 ft 433 kts 144°
2026-05-07 07:59 47.55567 10.30854 35024 ft 431 kts 148°
2026-05-07 08:00 47.50586 10.35774 35028 ft 429 kts 150°
2026-05-07 08:00 47.45586 10.40626 35024 ft 429 kts 150°
2026-05-07 08:01 47.40587 10.45471 35018 ft 429 kts 150°
2026-05-07 08:01 47.35639 10.50257 35009 ft 428 kts 150°
2026-05-07 08:02 47.30635 10.55082 35003 ft 428 kts 150°
2026-05-07 08:02 47.25720 10.60074 35011 ft 430 kts 148°
2026-05-07 08:03 47.20977 10.65056 35026 ft 430 kts 149°
2026-05-07 08:03 47.16006 10.70291 35038 ft 429 kts 149°
2026-05-07 08:04 47.11145 10.75391 35047 ft 429 kts 149°
2026-05-07 08:04 47.06298 10.80453 35046 ft 429 kts 149°
2026-05-07 08:05 47.01445 10.85506 35039 ft 429 kts 149°
2026-05-07 08:05 46.96580 10.90555 35029 ft 428 kts 149°
2026-05-07 08:06 46.91716 10.95590 35021 ft 427 kts 149°
2026-05-07 08:06 46.86827 11.00629 35013 ft 426 kts 150°
2026-05-07 08:07 46.82150 11.05979 35007 ft 430 kts 143°
2026-05-07 08:07 46.77874 11.12157 35006 ft 434 kts 137°
2026-05-07 08:08 46.73910 11.18856 35016 ft 435 kts 136°
2026-05-07 08:08 46.69953 11.25561 35030 ft 436 kts 136°